KC1UIX-13 Weather Reports


Display with metric or nautical units.
time (UTC)temp
F
wind
direction
speed
MPH
gust
MPH
rain 1hr
in
rain 24hr
in
rain mn
in
humidity
%
barometer
mb
20260508222020 58 284 7.0 11.0 0.00 0.00 0.00 33 1009.0
20260508221017 57 293 5.0 11.0 0.00 0.00 0.00 35 1009.0
20260508220017 58 309 5.0 10.0 0.00 0.00 0.00 34 1008.9
20260508215017 58 308 5.0 11.0 0.00 0.00 0.00 33 1008.9
20260508214018 58 325 5.0 12.0 0.00 0.00 0.00 34 1008.8
20260508213038 58 298 5.0 11.0 0.00 0.00 0.00 34 1008.8
20260508212018 58 297 6.0 13.0 0.00 0.00 0.00 34 1008.8
20260508211018 57 278 7.0 13.0 0.00 0.00 0.00 35 1008.6
20260508210018 58 311 6.0 11.0 0.00 0.00 0.00 34 1008.5
20260508205019 57 293 7.0 13.0 0.00 0.00 0.00 34 1008.5
20260508204019 57 298 7.0 13.0 0.00 0.00 0.00 36 1008.3
20260508203039 58 278 7.0 11.0 0.00 0.00 0.00 36 1008.2
20260508202036 57 288 6.0 13.0 0.00 0.00 0.00 37 1008.1
20260508201019 58 289 7.0 14.0 0.00 0.00 0.00 36 1008.1
20260508200020 59 291 6.0 13.0 0.00 0.00 0.00 36 1008.0
20260508195020 58 308 5.0 11.0 0.00 0.00 0.00 36 1007.8
20260508194020 59 288 8.0 14.0 0.00 0.00 0.00 35 1007.8
20260508193017 58 285 7.0 14.0 0.00 0.00 0.00 35 1007.8
20260508192017 58 285 7.0 15.0 0.00 0.00 0.00 35 1007.8
20260508191017 58 264 7.0 14.0 0.00 0.00 0.00 35 1007.6
20260508190017 58 278 6.0 17.0 0.00 0.00 0.00 34 1007.6
20260508185021 58 268 7.0 15.0 0.00 0.00 0.00 33 1007.5
20260508184018 59 274 6.0 12.0 0.00 0.00 0.00 32 1007.5
20260508183018 59 257 7.0 13.0 0.00 0.00 0.00 33 1007.6
20260508182018 58 261 7.0 11.0 0.00 0.00 0.00 34 1007.6
20260508181018 58 264 7.0 11.0 0.00 0.00 0.00 34 1007.7
20260508180018 57 262 6.0 10.0 0.00 0.00 0.00 35 1007.6
20260508175019 57 263 6.0 12.0 0.00 0.00 0.00 35 1007.6
20260508174019 57 253 4.0 9.0 0.00 0.00 0.00 37 1007.6
20260508173039 58 255 6.0 13.0 0.00 0.00 0.00 36 1007.7
20260508172019 58 270 6.0 12.0 0.00 0.00 0.00 37 1007.6
20260508171019 56 266 6.0 12.0 0.00 0.00 0.00 39 1007.6
20260508170039 56 258 6.0 10.0 0.00 0.00 0.00 40 1007.7
20260508165016 57 264 4.0 9.0 0.00 0.00 0.00 38 1007.7
20260508164016 57 277 5.0 12.0 0.00 0.00 0.00 37 1007.7
20260508163017 56 272 6.0 12.0 0.00 0.00 0.00 37 1007.9
20260508162020 56 280 6.0 11.0 0.00 0.00 0.00 37 1007.9
20260508161020 56 286 6.0 12.0 0.00 0.00 0.00 39 1008.0
20260508160017 56 285 6.0 11.0 0.00 0.00 0.00 39 1008.0
20260508155018 58 266 6.0 13.0 0.00 0.00 0.00 39 1008.0
20260508154018 59 253 7.0 16.0 0.00 0.00 0.00 40 1008.0
20260508153018 58 254 6.0 12.0 0.00 0.00 0.00 40 1008.0
20260508152058 57 268 7.0 16.0 0.00 0.00 0.00 39 1008.1
20260508151018 57 260 6.0 13.0 0.00 0.00 0.00 41 1008.2
20260508150018 56 258 7.0 12.0 0.00 0.00 0.00 41 1008.3
20260508145018 56 257 7.0 13.0 0.00 0.00 0.00 41 1008.3
20260508144019 56 280 6.0 13.0 0.00 0.00 0.00 40 1008.4
20260508143039 55 274 7.0 16.0 0.00 0.00 0.00 41 1008.4
20260508142039 56 272 7.0 12.0 0.00 0.00 0.00 41 1008.5
20260508141016 55 283 7.0 12.0 0.00 0.00 0.00 42 1008.5
20260508140037 55 289 6.0 13.0 0.00 0.00 0.00 44 1008.6
20260508135019 55 256 6.0 12.0 0.00 0.00 0.00 44 1008.6
20260508134020 54 281 5.0 11.0 0.00 0.00 0.00 45 1008.8
20260508133020 54 291 5.0 9.0 0.00 0.00 0.00 46 1008.9
20260508132017 54 277 4.0 8.0 0.00 0.00 0.00 48 1008.9
20260508131017 54 270 5.0 9.0 0.00 0.00 0.00 48 1009.0
20260508130017 53 288 4.0 7.0 0.00 0.00 0.00 49 1009.0
20260508125018 52 267 4.0 8.0 0.00 0.00 0.00 50 1009.0
20260508124018 52 279 5.0 10.0 0.00 0.00 0.00 50 1009.0
20260508123018 51 276 5.0 9.0 0.00 0.00 0.00 52 1009.0
20260508122018 50 268 5.0 10.0 0.00 0.00 0.00 53 1009.0
20260508121018 49 258 5.0 8.0 0.00 0.00 0.00 55 1009.1
20260508120018 49 275 4.0 7.0 0.00 0.00 0.00 57 1009.1
20260508115018 48 271 4.0 10.0 0.00 0.00 0.00 58 1009.0
20260508114019 47 265 3.0 7.0 0.00 0.00 0.00 60 1009.0
20260508113019 46 278 3.0 7.0 0.00 0.00 0.00 62 1008.9
20260508112019 45 271 3.0 6.0 0.00 0.00 0.00 63 1008.9
20260508111039 44 270 3.0 5.0 0.00 0.00 0.00 64 1008.8
20260508110019 43 284 3.0 6.0 0.00 0.00 0.00 63 1008.8
20260508105100 41 263 3.0 7.0 0.00 0.00 0.00 67 1008.7
20260508104016 40 248 2.0 5.0 0.00 0.00 0.00 71 1008.6
20260508103017 37 239 1.0 3.0 0.00 0.00 0.00 79 1008.5
20260508102017 35 229 1.0 2.0 0.00 0.00 0.00 89 1008.3
20260508101020 34 226 0.0 2.0 0.00 0.00 0.00 90 1008.2
20260508100020 34 238 0.0 1.0 0.00 0.00 0.00 89 1008.1
20260508095019 35 240 0.0 1.0 0.00 0.00 0.00 89 1008.0
20260508094017 34 227 0.0 1.0 0.00 0.00 0.00 88 1007.9
20260508093018 34 216 0.0 1.0 0.00 0.00 0.00 89 1007.8
20260508092017 35 226 0.0 2.0 0.00 0.00 0.00 89 1007.8
20260508091017 35 259 0.0 1.0 0.00 0.00 0.00 89 1007.7
20260508090017 36 6 0.0 1.0 0.00 0.00 0.00 88 1007.5
20260508085018 36 12 0.0 1.0 0.00 0.00 0.00 86 1007.3
20260508084039 36 27 0.0 2.0 0.00 0.01 0.00 84 1007.1
20260508083039 37 33 0.0 2.0 0.00 0.01 0.00 83 1007.0
20260508082039 37 20 0.0 2.0 0.00 0.01 0.00 83 1007.1
20260508081018 37 21 0.0 2.0 0.00 0.01 0.00 82 1007.0
20260508080019 38 357 0.0 3.0 0.00 0.01 0.00 83 1006.9
20260508075016 38 325 0.0 1.0 0.00 0.01 0.00 80 1006.9
20260508074040 38 329 0.0 2.0 0.00 0.01 0.00 80 1006.9
20260508073019 38 260 0.0 1.0 0.00 0.01 0.00 79 1006.9
20260508072020 39 271 0.0 1.0 0.00 0.01 0.00 78 1006.9
20260508071019 40 278 0.0 1.0 0.00 0.01 0.00 77 1006.9
20260508070017 41 319 1.0 3.0 0.00 0.01 0.00 71 1006.8
20260508065017 42 325 1.0 3.0 0.00 0.01 0.00 66 1006.8
20260508064017 43 331 1.0 4.0 0.00 0.01 0.00 64 1006.9
20260508063020 43 345 1.0 3.0 0.00 0.01 0.00 64 1006.9
20260508062018 43 314 2.0 5.0 0.00 0.01 0.00 64 1007.0
20260508061018 42 316 2.0 6.0 0.00 0.01 0.00 65 1007.1
20260508060018 41 308 2.0 5.0 0.00 0.01 0.00 71 1007.1
20260508055038 41 290 1.0 4.0 0.00 0.01 0.00 76 1007.1
20260508054018 42 296 1.0 4.0 0.00 0.01 0.00 73 1007.2
20260508053039 44 320 1.0 3.0 0.00 0.01 0.00 69 1007.3
20260508052016 45 268 1.0 2.0 0.00 0.01 0.00 61 1007.4
20260508051019 44 320 1.0 4.0 0.00 0.01 0.00 61 1007.5
20260508050019 44 288 2.0 4.0 0.00 0.01 0.00 71 1007.6
20260508045019 46 298 0.0 2.0 0.00 0.01 0.00 66 1007.7
20260508044039 46 4 0.0 2.0 0.00 0.01 0.00 57 1007.6
20260508043016 46 318 1.0 3.0 0.00 0.01 0.00 56 1007.5
20260508042017 46 290 1.0 4.0 0.00 0.01 0.00 62 1007.6
20260508041017 47 302 1.0 3.0 0.00 0.01 0.00 57 1007.7
20260508040020 48 337 1.0 3.0 0.00 0.01 0.00 53 1007.7
20260508035040 48 319 1.0 5.0 0.00 0.01 0.01 53 1007.6
20260508034017 48 305 2.0 4.0 0.00 0.01 0.01 57 1007.7
20260508033017 49 321 1.0 3.0 0.00 0.01 0.01 53 1007.7
20260508032018 49 346 1.0 4.0 0.00 0.01 0.01 51 1007.6
20260508031059 49 324 2.0 5.0 0.00 0.01 0.01 52 1007.5
20260508030018 50 328 1.0 4.0 0.00 0.01 0.01 51 1007.6
20260508025018 50 6 1.0 3.0 0.00 0.01 0.01 50 1007.7
20260508024018 51 344 1.0 4.0 0.00 0.01 0.01 49 1007.6
20260508023059 50 337 2.0 6.0 0.00 0.01 0.01 48 1007.6
20260508022019 50 345 1.0 4.0 0.00 0.01 0.01 51 1007.4
20260508021019 51 331 1.0 4.0 0.00 0.01 0.01 50 1007.2
20260508020016 51 318 2.0 4.0 0.00 0.01 0.01 49 1007.1
20260508015019 52 317 1.0 3.0 0.00 0.01 0.01 49 1006.9
20260508014019 51 285 1.0 4.0 0.00 0.01 0.01 47 1006.7
20260508013039 51 279 1.0 3.0 0.00 0.01 0.01 51 1006.6
20260508012019 50 260 1.0 3.0 0.00 0.01 0.01 54 1006.5
20260508011017 50 257 1.0 3.0 0.00 0.01 0.01 55 1006.4
20260508010017 51 285 0.0 2.0 0.00 0.01 0.01 50 1006.4
20260508005016 52 252 0.0 3.0 0.00 0.01 0.01 46 1006.3
20260508004020 52 220 1.0 3.0 0.00 0.01 0.01 47 1006.1
20260508003018 53 233 1.0 2.0 0.00 0.01 0.01 51 1006.0
20260508002018 54 240 1.0 2.0 0.00 0.01 0.01 46 1005.9
20260508001017 55 265 1.0 4.0 0.00 0.02 0.01 42 1005.8
20260508000018 56 269 1.0 4.0 0.00 0.02 0.01 40 1005.7
20260507235018 57 274 2.0 5.0 0.00 0.03 0.01 38 1005.6
20260507234018 58 279 3.0 7.0 0.00 0.03 0.01 36 1005.6
20260507233018 59 291 3.0 8.0 0.00 0.03 0.01 35 1005.5
20260507232018 60 280 3.0 6.0 0.00 0.03 0.01 35 1005.5
20260507231019 60 276 4.0 9.0 0.00 0.03 0.01 34 1005.4
20260507230039 60 280 5.0 9.0 0.00 0.03 0.01 34 1005.4
20260507225019 61 294 4.0 10.0 0.00 0.03 0.01 33 1005.3
20260507224016 61 285 5.0 9.0 0.00 0.03 0.01 33 1005.1
20260507223016 62 287 5.0 12.0 0.00 0.04 0.01 33 1005.0